Weather History for Lovelock, NV

Change the Weather History Date:

Monday, September 9, 2013

  Actual Average Record
Temperature  
Mean Temperature 74 °F -  
Max Temperature 88 °F 85 °F 99 °F (2012)
Min Temperature 59 °F 48 °F 32 °F (2001)
Cooling Degree Days 9    
Growing Degree Days 24 (Base 50)    
Moisture  
Dew Point 34 °F    
Average Humidity 27    
Maximum Humidity 46    
Minimum Humidity 12    
Precipitation  
Precipitation 0.00 in - - ()
Sea Level Pressure  
Sea Level Pressure 29.88 in    
Wind  
Wind Speed 10 mph (NE)    
Max Wind Speed 16 mph    
Max Gust Speed 22 mph    
Visibility 10 miles    
Events      
Averages and records for this station are not official NWS values.
T = Trace of Precipitation, MM = Missing Value Source: NWS Daily Summary

Daily Weather History Graph

Daily Weather History Graph

Search for Another Location

Airport:

Trip Planner

Search our weather history database for the weather conditions in past years. The results will help you decide how hot, cold, wet, or windy it might be!

Date:

Astronomy

Sep. 09, 2013 Rise Set
Actual Time 6:29 AM PDT 7:12 PM PDT
Civil Twilight 6:02 AM PDT 7:39 PM PDT
Nautical Twilight 5:30 AM PDT 8:12 PM PDT
Astronomical Twilight 4:56 AM PDT 8:45 PM PDT
Moon 10:56 AM PDT (9/9) 9:32 PM PDT (9/9)
Length of Visible Light 13h 37m
Length of Day
12h 42m
Waxing Crescent, 20% of the Moon is Illuminated
Sep 9
Waxing Crescent
Sep 12
First Quarter
Sep 19
Full
Sep 26
Last Quarter
Oct 4
New

Hourly Weather History & Observations

Time (PDT) Temp. Dew Point Humidity Pressure Visibility Wind Dir Wind Speed Gust Speed Precip Events Conditions
12:53 AM 64.0 °F 32.0 °F 30% 29.87 in 10.0 mi East 9.2 mph - N/A   Clear
1:53 AM 70.0 °F 35.1 °F 28% 29.86 in 10.0 mi East 4.6 mph - N/A   Clear
2:53 AM 66.0 °F 35.1 °F 32% 29.88 in 10.0 mi NNE 3.5 mph - N/A   Clear
3:53 AM 62.1 °F 35.1 °F 37% 29.88 in 10.0 mi North 6.9 mph - N/A   Clear
4:53 AM 61.0 °F 36.0 °F 39% 29.90 in 10.0 mi ENE 10.4 mph - N/A   Clear
5:53 AM 60.1 °F 37.9 °F 44% 29.91 in 10.0 mi NNE 10.4 mph - N/A   Clear
6:53 AM 61.0 °F 39.9 °F 46% 29.93 in 10.0 mi NNE 11.5 mph - N/A   Clear
7:53 AM 66.0 °F 43.0 °F 43% 29.94 in 10.0 mi North 9.2 mph - N/A   Clear
8:53 AM 71.1 °F 43.0 °F 36% 29.95 in 10.0 mi NNE 10.4 mph - N/A   Clear
9:53 AM 75.0 °F 43.0 °F 32% 29.96 in 10.0 mi NNE 13.8 mph 20.7 mph N/A   Clear
10:53 AM 80.1 °F 42.1 °F 26% 29.93 in 10.0 mi NNE 11.5 mph - N/A   Clear
11:53 AM 81.0 °F 41.0 °F 24% 29.92 in 10.0 mi NE 9.2 mph 18.4 mph N/A   Clear
12:53 PM 82.9 °F 37.9 °F 20% 29.89 in 10.0 mi ENE 11.5 mph 20.7 mph N/A   Clear
1:53 PM 84.9 °F 36.0 °F 17% 29.85 in 10.0 mi ENE 9.2 mph - N/A   Clear
2:53 PM 88.0 °F 33.1 °F 14% 29.83 in 10.0 mi NNE 15.0 mph 20.7 mph N/A   Clear
3:53 PM 87.1 °F 30.9 °F 13% 29.82 in 10.0 mi NNE 16.1 mph 21.9 mph N/A   Clear
4:53 PM 86.0 °F 28.0 °F 12% 29.81 in 10.0 mi ENE 16.1 mph - N/A   Clear
5:53 PM 84.9 °F 30.0 °F 14% 29.82 in 10.0 mi NE 15.0 mph - N/A   Clear
6:53 PM 82.0 °F 26.1 °F 13% 29.82 in 10.0 mi NNE 11.5 mph - N/A   Clear
7:53 PM 73.9 °F 26.1 °F 17% 29.84 in 10.0 mi North 8.1 mph - N/A   Clear
8:53 PM 64.0 °F 25.0 °F 23% 29.86 in 10.0 mi NE 8.1 mph - N/A   Clear
9:53 PM 66.9 °F 30.0 °F 25% 29.85 in 10.0 mi NE 11.5 mph - N/A   Clear
10:53 PM 63.0 °F 30.0 °F 29% 29.85 in 10.0 mi NE 6.9 mph - N/A   Clear
11:53 PM 59.0 °F 30.0 °F 33% 29.86 in 10.0 mi ENE 11.5 mph - N/A   Clear